Home   Weather   Seeb   Past weeks

Flag for Oman Past Weather in Seeb, Oman — Yesterday and Last 2 Weeks

Now
75 °F

Clear.


Feels Like: 77 °F
Forecast: 71 / 77 °F
Wind: 8 mph from Southeast

Location: International Airport

Current Time: Jan 20, 2017 at 3:55:46 am

Latest Report: Jan 20, 2017 at 2:50 am


Visibility: 10 mi

Pressure: 30.04 "Hg

Humidity: 61%

Dew Point: 61 °F

Location of SeebLocation

Past Weather in Seeb — Graph

°F

Seeb Temperature Yesterday

Maximum temperature yesterday: 79 °F (at 12:50 pm)
Minimum temperature yesterday: 70 °F (at 5:50 am)
Average temperature yesterday: 75 °F

High & Low Weather Summary for the Past Weeks

 TemperatureHumidityPressure
High88 °F (Jan 12, 12:50 pm)88% (Jan 10, 5:50 am)30.12 "Hg (Jan 10, 5:50 am)
Low61 °F (Jan 8, 4:50 am)16% (Jan 12, 12:50 pm)29.77 "Hg (Jan 13, 2:50 pm)
Average72 °F58%29.99 "Hg
* Reported Jan 5 1:50 am — Jan 20 1:50 am, Seeb, Weather by CustomWeather, © 2017

Note: Actual official high and low records may vary slightly from our data, if they occured in-between our weather recording intervals... More about our weather records

Advertising

Seeb Weather History for the Previous 24 Hours

Scroll right to see more
 ConditionsComfort  
Time TempWeatherWind HumidityBarometerVisibility
1:50 am
Fri, Jan 20
73 °FClear.8 mph65%30.04 "Hg10 mi
12:50 am73 °FClear.8 mph65%30.04 "Hg10 mi
11:50 pm
Thu, Jan 19
75 °FClear.10 mph61%30.04 "Hg10 mi
10:50 pm73 °FClear.10 mph69%30.07 "Hg10 mi
9:50 pm73 °FClear.15 mph74%30.07 "Hg10 mi
8:50 pm75 °FClear.14 mph65%30.07 "Hg10 mi
7:50 pm75 °FPassing clouds.15 mph65%30.07 "HgN/A
6:50 pm75 °FPassing clouds.12 mph65%30.04 "HgN/A
5:50 pm77 °FPassing clouds.13 mph61%30.04 "HgN/A
4:50 pm79 °FScattered clouds.12 mph54%30.01 "Hg4 mi
3:50 pm79 °FPassing clouds.15 mph61%30.01 "Hg4 mi
2:50 pm79 °FScattered clouds.18 mph58%30.01 "Hg5 mi
1:50 pm79 °FScattered clouds.15 mph54%30.04 "HgN/A
12:50 pm79 °FScattered clouds.10 mph51%30.07 "HgN/A
11:50 am77 °FScattered clouds.9 mph61%30.09 "HgN/A
10:50 am77 °FScattered clouds.9 mph61%30.12 "HgN/A
9:50 am75 °FSunny.5 mph61%30.12 "Hg10 mi
8:50 am73 °FPartly sunny.No wind65%30.12 "HgN/A
7:50 am70 °FPartly sunny.No wind73%30.09 "HgN/A
6:50 am70 °FPartly sunny.3 mph73%30.07 "HgN/A
5:50 am70 °FClear.3 mph73%30.07 "Hg10 mi
4:50 am72 °FClear.3 mph69%30.04 "Hg10 mi
3:50 am72 °FClear.6 mph69%30.04 "Hg10 mi
Weather by CustomWeather, © 2017

See weather overviewHow to use our weather pages